User: anonymous   Login
Location: Black Creek
(40.9000°S, 175.5500°E)
Time: 05:30:35
(UTC+00:00)
Language:

SKYMED 2 - Orbit

View from above orbital plane
View from above orbital plane
View from above satellite
View from above satellite

Ground track
Ground track

The orbit data is extracted from the following two-line orbital elements,

1 32376U 07059A   24281.77724685  .00002941  00000-0  37591-3 0  9999
2 32376  97.8892 103.2915 0001551  92.0227 268.1164 14.82141948910629
Epoch (UTC): 07 October 2024 18:39:14
Eccentricity: 0.0001551
inclination: 97.8892°
perigee height: 621 km
apogee height: 623 km
right ascension of ascending node: 103.2915°
argument of perigee: 92.0227°
revolutions per day: 14.82141948
mean anomaly at epoch: 268.1164°
orbit number at epoch: 91062

The dashed part of the orbit path shows where the satellite is in the earth's shadow,  

DLR